GW3446 Weather Reports


Display with metric or nautical units.
time (UTC)temp
F
wind
direction
speed
MPH
gust
MPH
rain 1hr
in
rain 24hr
in
rain mn
in
humidity
%
barometer
mb
20260507113004 34 231 5.0 10.0 0.00 0.09 0.00 93 1018.7
20260507111516 34 245 5.0 11.0 0.00 0.10 0.00 93 1018.7
20260507110014 34 267 4.0 9.0 0.00 0.10 0.00 93 1018.7
20260507104506 34 244 4.0 8.0 0.00 0.10 0.00 93 1018.7
20260507103005 34 232 3.0 7.0 0.00 0.10 0.00 92 1018.8
20260507101516 35 222 3.0 7.0 0.00 0.10 0.00 92 1019.1
20260507100016 35 242 1.0 6.0 0.00 0.10 0.00 92 1019.4
20260507094504 35 238 2.0 7.0 0.00 0.10 0.00 92 1019.4
20260507093008 35 226 3.0 7.0 0.00 0.10 0.00 92 1019.6
20260507091513 36 219 4.0 7.0 0.00 0.10 0.00 92 1019.4
20260507090020 36 225 4.0 7.0 0.00 0.10 0.00 91 1019.6
20260507084504 37 226 3.0 6.0 0.00 0.10 0.00 91 1019.9
20260507083007 37 250 3.0 5.0 0.00 0.10 0.00 91 1020.0
20260507081512 38 246 2.0 6.0 0.00 0.10 0.00 91 1020.1
20260507080019 40 284 2.0 7.0 0.00 0.10 0.00 91 1020.3
20260507074512 41 253 4.0 9.0 0.00 0.10 0.00 91 1020.5
20260507073009 41 252 3.0 9.0 0.00 0.10 0.00 92 1020.7
20260507071513 41 266 2.0 7.0 0.00 0.10 0.00 92 1020.8
20260507070020 41 259 2.0 6.0 0.00 0.11 0.00 91 1021.0
20260507064505 41 265 2.0 6.0 0.00 0.11 0.00 91 1021.1
20260507063010 41 238 3.0 8.0 0.00 0.12 0.00 90 1021.3
20260507061519 42 244 2.0 5.0 0.00 0.13 0.00 90 1021.4
20260507060019 42 271 2.0 4.0 0.00 0.13 0.00 89 1021.5
20260507054508 43 249 1.0 5.0 0.00 0.13 0.00 89 1021.6
20260507051529 44 252 2.0 6.0 0.00 0.13 0.00 88 1021.5
20260507050024 44 266 1.0 4.0 0.00 0.13 0.00 88 1021.5
20260507043013 45 267 1.0 7.0 0.00 0.13 0.13 86 1021.8
20260507041506 45 263 3.0 8.0 0.00 0.13 0.13 86 1022.0
20260507040006 45 296 1.0 7.0 0.00 0.13 0.13 86 1021.7
20260507034508 45 252 3.0 7.0 0.00 0.13 0.13 86 1021.7
20260507033003 45 263 1.0 5.0 0.00 0.13 0.13 86 1021.4
20260507031507 46 263 1.0 7.0 0.00 0.13 0.13 84 1021.3
20260507030010 46 331 1.0 3.0 0.00 0.13 0.13 84 1021.2
20260507024518 45 331 0.0 2.0 0.00 0.13 0.13 83 1020.9
20260507023003 45 331 0.0 2.0 0.00 0.13 0.13 83 1020.5
20260507021504 46 331 0.0 1.0 0.00 0.13 0.13 83 1020.4
20260507020008 46 331 0.0 1.0 0.00 0.13 0.13 82 1020.2
20260507014526 46 331 2.0 3.0 0.00 0.13 0.13 81 1020.4
20260507013002 46 331 2.0 4.0 0.00 0.13 0.13 80 1020.5
20260507011504 46 321 0.0 1.0 0.00 0.13 0.13 79 1020.4
20260507010016 47 306 0.0 2.0 0.00 0.13 0.13 75 1020.1
20260507004517 47 306 0.0 2.0 0.00 0.13 0.13 76 1019.9
20260507003011 47 344 1.0 3.0 0.00 0.13 0.13 74 1019.8
20260507001504 47 5 0.0 1.0 0.00 0.13 0.13 74 1019.8
20260506233004 47 89 1.0 3.0 0.00 0.13 0.13 76 1019.7
20260506231506 47 89 1.0 5.0 0.00 0.13 0.13 76 1019.7
20260506230015 47 35 0.0 4.0 0.00 0.13 0.13 77 1019.5
20260506224520 47 329 0.0 5.0 0.00 0.13 0.13 76 1019.7
20260506221506 47 86 2.0 6.0 0.01 0.13 0.13 74 1019.6
20260506214520 47 128 0.0 3.0 0.01 0.13 0.13 74 1019.6
20260506213003 46 128 1.0 5.0 0.01 0.13 0.13 74 1019.7
20260506211505 46 205 0.0 3.0 0.00 0.12 0.12 77 1019.8
20260506210015 46 101 1.0 4.0 0.00 0.12 0.12 77 1020.0
20260506204524 46 48 1.0 8.0 0.00 0.12 0.12 81 1020.1
20260506203012 46 128 2.0 8.0 0.00 0.12 0.12 80 1020.1
20260506201515 45 108 1.0 8.0 0.00 0.12 0.12 82 1020.3
20260506200018 45 59 1.0 8.0 0.00 0.12 0.12 85 1020.2
20260506194524 44 82 2.0 7.0 0.00 0.12 0.12 86 1020.3
20260506193008 44 93 2.0 10.0 0.00 0.12 0.12 86 1020.2
20260506191503 44 90 4.0 9.0 0.00 0.12 0.12 87 1020.1
20260506190004 43 186 2.0 8.0 0.00 0.12 0.12 89 1020.3
20260506181503 42 76 4.0 10.0 0.04 0.12 0.12 90 1020.7
20260506180006 42 122 1.0 9.0 0.05 0.12 0.12 90 1020.8
20260506171503 42 63 4.0 8.0 0.03 0.08 0.08 92 1020.7
20260506170009 42 62 3.0 9.0 0.02 0.07 0.07 92 1020.8
20260506164508 42 69 4.0 7.0 0.01 0.06 0.06 92 1020.7
20260506163014 41 43 6.0 10.0 0.01 0.06 0.06 92 1020.5
20260506161503 41 28 5.0 11.0 0.00 0.05 0.05 92 1020.4
20260506160007 41 46 7.0 11.0 0.00 0.05 0.05 91 1020.1
20260506154510 41 91 4.0 9.0 0.00 0.05 0.05 92 1019.7
20260506153020 41 30 4.0 7.0 0.00 0.05 0.05 92 1020.1
20260506151503 41 69 3.0 7.0 0.01 0.05 0.05 91 1020.0
20260506150005 40 53 4.0 9.0 0.01 0.05 0.05 92 1019.8
20260506144524 40 51 4.0 9.0 0.01 0.05 0.05 91 1019.7
20260506143020 40 42 5.0 11.0 0.01 0.05 0.05 91 1019.7
20260506141503 41 46 4.0 6.0 0.00 0.04 0.04 91 1019.8
20260506140010 41 69 2.0 4.0 0.00 0.04 0.04 91 1020.0
20260506134511 40 63 4.0 6.0 0.00 0.04 0.04 91 1019.6
20260506133019 40 61 2.0 4.0 0.00 0.04 0.04 91 1019.9
20260506131504 40 84 0.0 3.0 0.00 0.04 0.04 91 1019.7
20260506130010 40 36 1.0 3.0 0.00 0.04 0.04 91 1019.4
20260506123028 40 63 3.0 5.0 0.00 0.04 0.04 92 1018.4
20260506120023 40 41 2.0 6.0 0.01 0.04 0.04 92 1017.8